User: anonymous   Login
Location: Ammerl�gen
(47.2167°N, 9.6000°E)
Time: 22:09:41
(UTC+00:00)
Language:

Tiangong - Orbit

View from above orbital plane
View from above orbital plane
View from above satellite
View from above satellite

Ground track
Ground track

The orbit data is extracted from the following two-line orbital elements,

1 48274U 21035A   21301.42655953  .00011819  00000-0  14112-3 0  9994
2 48274  41.4701 190.5866 0006793 275.6677 252.1970 15.60861282 28537
Epoch (UTC): 28 October 2021 10:14:14
Eccentricity: 0.0006793
inclination: 41.4701°
perigee height: 380 km
apogee height: 390 km
right ascension of ascending node: 190.5866°
argument of perigee: 275.6677°
revolutions per day: 15.60861282
mean anomaly at epoch: 252.1970°
orbit number at epoch: 2853

The dashed part of the orbit path shows where the satellite is in the earth's shadow,  

DLR